Regional Weather Roundup
Issued by NWS

Home | Current Version | Previous Version | Text Only | Print | Product List | Glossary On
Versions: 1 2 3 4 5 6 7 8 9 10 11 12 13 14 15 16 17 18 19 20 21 22 23 24 25 26 27 28 29 30 31 32 33 34 35 36 37 38 39 40 41 42 43 44 45 46 47 48 49 50
000
ASUS44 KMEG 060300
RWRTN
TENNESSEE HOURLY STATE WEATHER ROUNDUP
NATIONAL WEATHER SERVICE MEMPHIS TN
1000 PM CDT TUE MAY 05 2015

TNZ002-004-019-021-049-052-054-088>092-060400-
WEST TENNESSEE

CITY           SKY/WX    TMP DP  RH WIND       PRES   REMARKS
MEMPHIS INTL   CLEAR     74  53  48 SE3       30.15R
NWS MEMPHIS      N/A     67 N/A N/A MISG        N/A
JACKSON        CLEAR     61  56  83 S3        30.17R
DYERSBURG      CLEAR     68  46  45 CALM      30.17R
PARIS          CLEAR     63  52  67 CALM      30.19R
LEXINGTON      CLEAR     61  57  88 CALM      30.18S
$$

TNZ008-025-027-028-033-062-065-066-060400-
NORTH MIDDLE TENNESSEE

CITY           SKY/WX    TMP DP  RH WIND       PRES   REMARKS
NASHVILLE      CLEAR     69  56  62 S5        30.21R
CLARKSVILLE    CLEAR     67  53  61 CALM      30.19R
CROSSVILLE     CLOUDY    64  53  67 CALM      30.28R
$$

TNZ061-075-076-078-094-096-097-060400-
SOUTH MIDDLE TENNESSEE

CITY           SKY/WX    TMP DP  RH WIND       PRES   REMARKS
FAYETTEVILLE     N/A     66  54  63 CALM      30.23R
TULLAHOMA      CLOUDY    64  54  68 CALM      30.25R
WINCHESTER     CLOUDY    68  57  68 CALM      30.24R
SHELBYVILLE    PTCLDY    64  59  82 E3        30.23R
$$

TNZ017-018-042-046-047-060400-
NORTHEAST TENNESSEE

CITY           SKY/WX    TMP DP  RH WIND       PRES   REMARKS
TRI CITIES     CLOUDY    72  53  51 CALM      30.26S
ELIZABETHTON   CLOUDY    64  55  72 CALM      30.28S
$$

TNZ012-013-036-069-073-074-060400-
CENTRAL EAST TENNESSEE

CITY           SKY/WX    TMP DP  RH WIND       PRES   REMARKS
KNOXVILLE      CLOUDY    70  57  63 S10       30.23R
OAK RIDGE      MOCLDY    74  56  53 CALM      30.25R
$$

TNZ083-085-099-060400-
SOUTHEAST TENNESSEE

CITY           SKY/WX    TMP DP  RH WIND       PRES   REMARKS
CHATTANOOGA    CLOUDY    75  56  51 CALM      30.23R
$$

SKY/WX REPORTED AS FAIR MEANS FEW OR NO CLOUDS BELOW
12 THOUSAND FEET.




USA.gov is the U.S. government's official web portal to all federal, state and local government web resources and services.